Weather History for KWWR - July, 2013

Change the Weather History Date:

Thursday, July 11, 2013

  Actual Average (KGAG) Record (KGAG)
Temperature  
Mean Temperature 84 °F -  
Max Temperature 98 °F 96 °F 106 °F (1954)
Min Temperature 71 °F 69 °F 52 °F (1999)
Cooling Degree Days 20    
Growing Degree Days 34 (Base 50)    
Moisture  
Dew Point 61 °F    
Average Humidity 47    
Maximum Humidity 73    
Minimum Humidity 25    
Precipitation  
Precipitation 0.00 in - - ()
Sea Level Pressure  
Sea Level Pressure 30.03 in    
Wind  
Wind Speed 8 mph (SSE)    
Max Wind Speed 21 mph    
Max Gust Speed 26 mph    
Visibility 10 miles    
Events Rain    
Averages and records for this station are not official NWS values.
T = Trace of Precipitation, MM = Missing Value Source: NWS Daily Summary

Daily Weather History Graph

Daily Weather History Graph

Search for Another Location

Airport or City:

Trip Planner

Search our weather history database for the weather conditions in past years. The results will help you decide how hot, cold, wet, or windy it might be!

Date:

Astronomy

Jul. 11, 2013 Rise Set
Actual Time 6:29 AM CDT 8:57 PM CDT
Civil Twilight 5:59 AM CDT 9:27 PM CDT
Nautical Twilight 5:22 AM CDT 10:04 PM CDT
Astronomical Twilight 4:41 AM CDT 10:45 PM CDT
Moon 9:42 AM CDT (7/11) 10:46 PM CDT (7/11)
Length of Visible Light 15h 28m
Length of Day
14h 28m
Waxing Crescent, 11% of the Moon is Illuminated
Jul 11
Waxing Crescent
Jul 15
First Quarter
Jul 22
Full
Jul 29
Last Quarter
Aug 6
New

Hourly Weather History & Observations

Time (CDT) Temp. Heat Index Dew Point Humidity Pressure Visibility Wind Dir Wind Speed Gust Speed Precip Events Conditions
12:15 AM 82.4 °F 82.9 °F 60.8 °F 48% 30.04 in 10.0 mi South 4.6 mph - N/A   Clear
12:35 AM 82.4 °F 83.4 °F 62.6 °F 51% 30.05 in 10.0 mi WSW 10.4 mph - N/A   Clear
12:55 AM 80.6 °F 81.8 °F 62.6 °F 54% 30.05 in 10.0 mi WSW 3.5 mph - N/A   Clear
1:15 AM 78.8 °F - 64.4 °F 61% 30.07 in 10.0 mi West 5.8 mph - N/A   Mostly Cloudy
1:35 AM 80.6 °F 81.8 °F 62.6 °F 54% 30.09 in 10.0 mi NW 16.1 mph 21.9 mph N/A   Mostly Cloudy
1:55 AM 80.6 °F 81.5 °F 60.8 °F 51% 30.09 in 10.0 mi NW 16.1 mph 26.5 mph N/A   Scattered Clouds
2:15 AM 78.8 °F - 60.8 °F 54% 30.08 in 10.0 mi NW 16.1 mph 21.9 mph N/A   Clear
2:35 AM 78.8 °F - 62.6 °F 57% 30.08 in 10.0 mi NW 13.8 mph - N/A   Clear
2:55 AM 77.0 °F - 62.6 °F 61% 30.08 in 10.0 mi NW 13.8 mph - N/A   Clear
3:15 AM 77.0 °F - 62.6 °F 61% 30.08 in 10.0 mi NW 11.5 mph - N/A   Clear
3:35 AM 77.0 °F - 62.6 °F 61% 30.07 in 10.0 mi NW 11.5 mph - N/A   Clear
3:55 AM 77.0 °F - 62.6 °F 61% 30.07 in 10.0 mi NW 5.8 mph - N/A   Clear
4:15 AM 77.0 °F - 62.6 °F 61% 30.07 in 10.0 mi WNW 3.5 mph - N/A   Clear
4:35 AM 75.2 °F - 62.6 °F 65% 30.05 in 10.0 mi West 4.6 mph - N/A   Clear
4:55 AM 73.4 °F - 62.6 °F 69% 30.05 in 10.0 mi WSW 4.6 mph - N/A   Clear
5:15 AM 73.4 °F - 62.6 °F 69% 30.04 in 10.0 mi WSW 4.6 mph - N/A   Clear
5:35 AM 71.6 °F - 62.6 °F 73% 30.05 in 10.0 mi WSW 5.8 mph - N/A   Clear
5:55 AM 71.6 °F - 62.6 °F 73% 30.05 in 10.0 mi SW 6.9 mph - N/A   Clear
6:15 AM 71.6 °F - 62.6 °F 73% 30.05 in 10.0 mi SW 5.8 mph - N/A   Clear
6:35 AM 71.6 °F - 62.6 °F 73% 30.05 in 10.0 mi SW 4.6 mph - N/A   Clear
6:55 AM 71.6 °F - 62.6 °F 73% 30.05 in 10.0 mi SSW 3.5 mph - N/A   Clear
7:15 AM 71.6 °F - 62.6 °F 73% 30.07 in 10.0 mi Calm Calm - N/A   Clear
7:35 AM 77.0 °F - 62.6 °F 61% 30.08 in 10.0 mi Calm Calm - N/A   Clear
7:55 AM 78.8 °F - 60.8 °F 54% 30.08 in 10.0 mi Calm Calm - N/A   Clear
8:15 AM 78.8 °F - 60.8 °F 54% 30.09 in 10.0 mi East 5.8 mph - N/A   Clear
8:35 AM 78.8 °F - 60.8 °F 54% 30.09 in 10.0 mi Calm Calm - N/A   Clear
8:55 AM 78.8 °F - 60.8 °F 54% 30.08 in 10.0 mi East 5.8 mph - N/A   Clear
9:15 AM 80.6 °F 81.5 °F 60.8 °F 51% 30.07 in 10.0 mi ESE 5.8 mph - N/A   Clear
9:35 AM 80.6 °F 81.5 °F 60.8 °F 51% 30.07 in 10.0 mi ESE 4.6 mph - N/A   Clear
9:55 AM 82.4 °F 82.9 °F 60.8 °F 48% 30.07 in 10.0 mi Calm Calm - N/A   Clear
10:15 AM 87.8 °F 87.6 °F 60.8 °F 40% 30.07 in 10.0 mi SE 3.5 mph - N/A   Clear
10:35 AM 87.8 °F 87.6 °F 60.8 °F 40% 30.07 in 10.0 mi East 3.5 mph - N/A   Clear
10:55 AM 89.6 °F 89.5 °F 60.8 °F 38% 30.06 in 10.0 mi SE 4.6 mph - N/A   Clear
11:15 AM 89.6 °F 89.5 °F 60.8 °F 38% 30.06 in 10.0 mi South 3.5 mph - N/A   Clear
11:35 AM 91.4 °F 90.7 °F 59.0 °F 34% 30.06 in 10.0 mi Calm Calm - N/A   Clear
11:55 AM 93.2 °F 91.9 °F 57.2 °F 30% 30.06 in 10.0 mi SSE 8.1 mph - N/A   Clear
12:15 PM 93.2 °F 91.3 °F 55.4 °F 28% 30.06 in 10.0 mi SE 6.9 mph - N/A   Clear
12:35 PM 93.2 °F 91.3 °F 55.4 °F 28% 30.06 in 10.0 mi ESE 4.6 mph - N/A   Clear
12:55 PM 95.0 °F 93.0 °F 55.4 °F 26% 30.05 in 10.0 mi Calm Calm - N/A   Clear
1:15 PM 95.0 °F 93.0 °F 55.4 °F 26% 30.05 in 10.0 mi NNE 5.8 mph - N/A   Clear
1:35 PM 96.8 °F 95.1 °F 55.4 °F 25% 30.04 in 10.0 mi East 6.9 mph - N/A   Clear
1:55 PM 98.6 °F 97.6 °F 57.2 °F 25% 30.04 in 10.0 mi ENE 6.9 mph - N/A   Clear
2:15 PM 96.8 °F 96.2 °F 59.0 °F 28% 30.03 in 10.0 mi East 10.4 mph 18.4 mph N/A   Mostly Cloudy
2:35 PM 95.0 °F 94.4 °F 59.0 °F 30% 30.03 in 10.0 mi East 13.8 mph 21.9 mph N/A   Overcast
2:55 PM 93.2 °F 91.9 °F 57.2 °F 30% 30.03 in 10.0 mi ESE 15.0 mph 18.4 mph N/A   Mostly Cloudy
3:15 PM 91.4 °F 91.4 °F 60.8 °F 36% 30.02 in 10.0 mi East 12.7 mph - N/A Rain Light Rain
3:35 PM 96.8 °F 96.2 °F 59.0 °F 28% 30.01 in 10.0 mi East 12.7 mph - N/A   Clear
3:55 PM 96.8 °F 95.8 °F 57.2 °F 27% 30.00 in 10.0 mi East 13.8 mph 18.4 mph N/A   Clear
4:15 PM 98.6 °F 98.5 °F 59.0 °F 27% 29.99 in 10.0 mi East 15.0 mph 19.6 mph N/A   Clear
4:35 PM 98.6 °F 98.5 °F 59.0 °F 27% 29.99 in 10.0 mi ESE 12.7 mph 20.7 mph N/A   Clear
4:55 PM 98.6 °F 98.5 °F 59.0 °F 27% 29.99 in 10.0 mi East 17.3 mph 21.9 mph N/A   Clear
5:15 PM 95.0 °F 94.4 °F 59.0 °F 30% 30.00 in 10.0 mi SE 15.0 mph 25.3 mph N/A   Clear
5:35 PM 95.0 °F 95.2 °F 60.8 °F 32% 29.99 in 10.0 mi SE 20.7 mph 25.3 mph N/A   Clear
5:55 PM 95.0 °F 95.2 °F 60.8 °F 32% 29.98 in 10.0 mi SE 17.3 mph 24.2 mph N/A   Clear
6:15 PM 95.0 °F 95.2 °F 60.8 °F 32% 29.97 in 10.0 mi SSE 16.1 mph 24.2 mph N/A   Clear
6:35 PM 95.0 °F 96.0 °F 62.6 °F 34% 29.97 in 10.0 mi SSE 17.3 mph 23.0 mph N/A   Clear
6:55 PM 93.2 °F 94.1 °F 62.6 °F 36% 29.96 in 10.0 mi SSE 18.4 mph 23.0 mph N/A   Clear
7:15 PM 91.4 °F 93.2 °F 64.4 °F 41% 29.96 in 10.0 mi SSE 15.0 mph 21.9 mph N/A   Clear
7:35 PM 89.6 °F 91.1 °F 64.4 °F 43% 29.97 in 10.0 mi SSE 15.0 mph 23.0 mph N/A   Clear
7:55 PM 89.6 °F 90.1 °F 62.6 °F 40% 29.98 in 10.0 mi SSE 12.7 mph - N/A   Clear
8:15 PM 89.6 °F 89.5 °F 60.8 °F 38% 29.98 in 10.0 mi South 10.4 mph - N/A   Clear
8:35 PM 87.8 °F 88.5 °F 62.6 °F 43% 29.99 in 10.0 mi South 8.1 mph - N/A   Clear
8:55 PM 86.0 °F 86.6 °F 62.6 °F 45% 29.99 in 10.0 mi SSW 6.9 mph - N/A   Clear
9:15 PM 84.2 °F 85.0 °F 62.6 °F 48% 29.99 in 10.0 mi South 10.4 mph - N/A   Clear
9:35 PM 82.4 °F 83.4 °F 62.6 °F 51% 29.99 in 10.0 mi South 6.9 mph - N/A   Clear
9:55 PM 80.6 °F 81.8 °F 62.6 °F 54% 29.99 in 10.0 mi SE 6.9 mph - N/A   Clear
10:15 PM 80.6 °F 82.3 °F 64.4 °F 58% 30.00 in 10.0 mi SSE 4.6 mph - N/A   Clear
10:35 PM 80.6 °F 81.8 °F 62.6 °F 54% 30.00 in 10.0 mi SSE 6.9 mph - N/A   Clear
10:55 PM 78.8 °F - 60.8 °F 54% 30.00 in 10.0 mi SSE 6.9 mph - N/A   Clear
11:15 PM 80.6 °F 81.5 °F 60.8 °F 51% 30.00 in 10.0 mi SSE 5.8 mph - N/A   Clear
11:35 PM 80.6 °F 81.5 °F 60.8 °F 51% 30.00 in 10.0 mi SSE 6.9 mph - N/A   Clear
11:55 PM 80.6 °F 81.5 °F 60.8 °F 51% 30.01 in 10.0 mi SSE 6.9 mph - N/A   Clear